Regional Weather Roundup
Issued by NWS

Home | Current Version | Previous Version | Graphics & Text | Print | Product List | Glossary On
Versions: 1 2 3 4 5 6 7 8 9 10 11 12 13 14 15 16 17 18 19 20 21 22 23 24 25 26 27 28 29 30 31 32 33 34 35 36 37 38 39 40 41 42 43 44 45 46 47 48 49 50
000
ASUS43 KDMX 181806
RWRIA

WEATHER ROUNDUP FOR IOWA
NATIONAL WEATHER SERVICE DES MOINES IA
100 PM CDT WED OCT 18 2017

NOTE: "FAIR" INDICATES FEW OR NO CLOUDS BELOW 12,000 FEET WITH NO
SIGNIFICANT WEATHER AND/OR OBSTRUCTIONS TO VISIBILITY.

* - THESE STATIONS ARE NOT NWS STATIONS...THUS NOT UNDER NWS
QUALITY CONTROL.  THEY ALSO DO NOT REPORT WEATHER SUCH
AS PRECIPITATION OR FOG.

IAZ001>003-012>014-020>022-031>034-043>046-181900-
   NORTHWEST IOWA

CITY           SKY/WX    TMP DP  RH WIND       PRES   REMARKS
CARROLL *      SUNNY     77  52  41 SW15      29.90S
CHEROKEE *     SUNNY     66  48  50 W7G17     29.92R
DENISON *      SUNNY     70  48  46 SW13G18   29.93R
LE MARS *      SUNNY     68  43  40 NW10G17   29.93R
ORANGE CITY *  SUNNY     66  46  48 N12       29.93R
SHELDON *      MOSUNNY   68  43  40 NW14      29.91R
SIOUX CITY     SUNNY     71  46  40 W8        29.92R
6HR MIN TEMP:  45; 6HR MAX TEMP:  71;

SPENCER        SUNNY     66  45  46 NW9       29.91R
6HR MIN TEMP:  42; 6HR MAX TEMP:  69;

STORM LAKE *   SUNNY     70  48  46 W13G18    29.92R
$$

IAZ055>058-069>071-079>083-090>094-181900-
   SOUTHWEST IOWA

CITY           SKY/WX    TMP DP  RH WIND       PRES   REMARKS
ATLANTIC *     SUNNY     68  48  49 SW16      29.93R
AUDUBON *      MOSUNNY   68  50  52 S12       29.94R
CLARINDA *     SUNNY     70  48  46 SW15G23   29.97F
COUNCIL BLFS * MOSUNNY   68  50  52 SW14      29.92S
CRESTON *      SUNNY     68  48  49 S17       29.95F
HARLAN  *      SUNNY     68  48  49 S15       29.95S
LAMONI         SUNNY     69  48  47 S18G24    29.99F
6HR MIN TEMP:  48; 6HR MAX TEMP:  69;

RED OAK *      SUNNY     68  48  49 S14G22    29.93F
SHENANDOAH *   SUNNY     70  48  46 S13       29.94F
$$

IAZ047>049-059>061-072>074-084-181900-
   CENTRAL IOWA

CITY           SKY/WX    TMP DP  RH WIND       PRES   REMARKS
AMES           PTSUNNY   69  49  48 S16G23    29.93F
6HR MIN TEMP:  49; 6HR MAX TEMP:  70;

ANKENY *       MOSUNNY   70  48  46 S15G22    29.95F
BOONE *        MOSUNNY   68  46  45 S13G18    29.92S
CHARITON *     SUNNY     70  48  46 S16G28    29.98F
DES MOINES     PTSUNNY   71  48  43 S17       29.94F
6HR MIN TEMP:  52; 6HR MAX TEMP:  71;

GRINNELL*      SUNNY     70  46  42 S12G23    29.98F
KNOXVILLE *    SUNNY     72  46  40 S13G22    29.96F
MARSHALLTOWN   SUNNY     70  49  47 S14       29.94F
6HR MIN TEMP:  50; 6HR MAX TEMP:  70;

NEWTON *       SUNNY     72  46  40 S18G26    29.95F
PELLA *        SUNNY     71  47  42 S16       29.99F
PERRY *          N/A     71  44  36 S10       29.92F
$$

IAZ004>006-015-016-023>025-035-036-181900-
   NORTH CENTRAL IOWA

CITY           SKY/WX    TMP DP  RH WIND       PRES   REMARKS
ALGONA *       SUNNY     72  48  43 SW16      29.91R
CLARION *      CLOUDY    70  48  46 S20       29.90S
ESTHERVILLE    SUNNY     67  45  45 W9G21     29.90R
6HR MIN TEMP:  41; 6HR MAX TEMP:  68;

FORT DODGE *   MOSUNNY   70  48  45 SW17      29.91R
MASON CITY     MOSUNNY   70  49  47 S16G22    29.90F
6HR MIN TEMP:  47; 6HR MAX TEMP:  70;

FOREST CITY *    N/A     68  46  45 S14G23    29.90R
WEBSTER CITY * PTSUNNY   70  46  43 S14G21    29.89S
IOWA FALLS *     N/A     71  48  44 S15G21    29.93F
$$

IAZ007>011-017>019-026>030-037>042-050>054-066-181900-
   NORTHEAST IOWA

CITY           SKY/WX    TMP DP  RH WIND       PRES   REMARKS
CEDAR RAPIDS   SUNNY     71  47  42 S14G22    29.99F
6HR MIN TEMP:  47; 6HR MAX TEMP:  71;

CHARLES CITY * SUNNY     70  46  43 S16G24    29.91F
CLINTON *      SUNNY     70  48  45 S20       30.05F
DECORAH *      SUNNY     70  48  46 S13G23    29.91F
DUBUQUE        SUNNY     67  47  48 S21       30.00F
6HR MIN TEMP:  46; 6HR MAX TEMP:  67;

MONTICELLO *   SUNNY     72  46  40 S16       29.99F
OELWEIN *      SUNNY     70  48  46 S21G29    29.95F
WATERLOO       SUNNY     71  46  40 S16       29.93F
6HR MIN TEMP:  47; 6HR MAX TEMP:  71;

$$

IAZ064-065-067-068-078-181900-
   EAST CENTRAL IOWA

CITY           SKY/WX    TMP DP  RH WIND       PRES   REMARKS
DAVENPORT      SUNNY     69  46  43 S15G22    30.06F
6HR MIN TEMP:  49; 6HR MAX TEMP:  69;

IOWA CITY      SUNNY     71  46  40 S20       30.03F
6HR MIN TEMP:  49; 6HR MAX TEMP:  72;

MUSCATINE *    SUNNY     72  45  37 S21       30.03F
QUAD CITIES    SUNNY     71  45  39 SW17G24   30.04F
6HR MIN TEMP:  51; 6HR MAX TEMP:  71;

$$

IAZ062-063-075>077-085>089-095>099-181900-
   SOUTHEAST IOWA

CITY           SKY/WX    TMP DP  RH WIND       PRES   REMARKS
BURLINGTON     SUNNY     70  47  43 S16       30.06F
6HR MIN TEMP:  48; 6HR MAX TEMP:  70;

FAIRFIELD *    SUNNY     70  45  40 S14G22    30.02F
FORT MADISON * SUNNY     70  46  43 S9        30.07F
KEOKUK *       SUNNY     68  46  45 S14G21    30.05F
OSKALOOSA *      N/A     71  46  40 SW17G23   30.01F
OTTUMWA        SUNNY     72  47  40 S17       30.01
6HR MIN TEMP:  50; 6HR MAX TEMP:  72;

WASHINGTON *   SUNNY     72  46  40 S14G22    30.04F
$$

ABBREVIATIONS USED IN REMARKS
   TC - TEMPERATURES IN CELSIUS
  WCI - WIND CHILL INDEX
   HX - HEAT INDEX
  VSB - VISIBILITY
$$





USA.gov is the U.S. government's official web portal to all federal, state and local government web resources and services.